Location: Unspecified
(22.6800°N, 112.2000°E)
Time: 04:05:11
(UTC+08:00)

S-56A Canister/Altair - Pass Details

Date: 01 August 2021
Orbit: 632 x 2500 km, 38.9° (Epoch: 27 September)

Event Time Altitude Azimuth Distance (km) Brightness Sun altitude
Rises 13:03:54 0° 222° (SW) 4,576 11.6 82.2°
Reaches altitude 10° 13:06:35 10° 220° (SW) 3,817 11.4 81.7°
Maximum altitude 13:17:02 68° 139° (SE) 2,201 11.2 79.6°
Drops below altitude 10° 13:31:28 10° 60° (ENE) 5,114 11.7 76.5°
Sets 13:35:39 0° 58° (ENE) 6,175 12.0 75.6°
